User: anonymous   Login
Location: Unspecified
(0.0000°N, 0.0000°E)
Time: 05:42:49
(UTC+00:00)
Language:

STARLINK-1193 - Orbit

View from above orbital plane
View from above orbital plane
View from above satellite
View from above satellite

Ground track
Ground track

The orbit is defined by the following mean orbital elements,

1 45100U          26145.57144861 +.00000000 +00000-0 +42039-3 0 00008
2 45100  53.0466 214.9594 0003839 293.4931  66.5681 15.66427871    03
Epoch (UTC): 25 May 2026 13:42:53
Eccentricity: 0.0003839
inclination: 53.0466°
perigee height: 367 km
apogee height: 372 km
right ascension of ascending node: 214.9594°
argument of perigee: 293.4931°
revolutions per day: 15.66427871
mean anomaly at epoch: 66.5681°

The dashed part of the orbit path shows where the satellite is in the earth's shadow,  

DLR